Probability
0 0 0 0 0 0 0 0 0 0 0 0 0 0 0 0 0 0 0 0 0 0 0 0 0 0 0 0 0 0 0 0 0 0 0 0 0 0 0 0 1 2 2 2
0 0 0 0 0 0 0 0 0 0 0 0 0 0 0 0 0 0 0 0 0 0 0 0 0 0 0 0 0 0 0 0 0 0 0 0 0 0 0 0 0 1 1 1
0 0 0 0 0 0 0 0 0 0 0 0 0 0 0 0 0 0 0 0 0 0 0 0 0 0 0 0 0 0 0 0 0 0 0 0 0 0 0 0 0 0 0 0
0 0 0 0 0 0 0 0 0 0 0 0 0 0 0 0 0 0 0 0 0 0 0 0 0 0 0 0 0 0 0 0 0 0 0 0 0 0 0 0 0 0 0 0
0 0 0 0 0 0 0 0 0 0 0 0 0 0 0 0 0 0 0 0 0 0 0 0 0 0 0 0 0 0 0 0 0 0 0 0 0 0 0 0 0 0 0 0
0 0 0 0 0 0 0 0 0 0 0 0 0 0 0 0 0 0 0 0 0 0 0 0 0 0 0 0 0 0 0 0 0 0 0 0 0 0 0 0 0 0 0 0
0 0 0 0 0 0 0 0 0 0 0 0 0 0 0 0 0 0 0 0 0 0 0 0 0 0 0 0 0 0 0 0 0 0 0 0 0 0 0 0 0 0 0 0
0 0 0 0 0 0 0 0 0 0 0 0 0 0 0 0 0 0 0 0 0 0 0 0 0 0 0 0 0 0 0 0 0 0 0 0 0 0 0 0 0 0 0 0
0 0 0 0 0 0 0 0 0 0 0 0 0 0 0 0 0 0 0 0 0 0 0 0 0 0 0 0 0 0 0 0 0 0 0 0 0 0 0 0 0 0 0 0
0 0 0 0 0 0 0 0 0 0 0 0 0 0 0 0 0 0 0 0 0 0 0 0 0 0 0 0 0 0 0 0 0 0 0 0 0 0 0 0 0 0 0 0
0 0 0 0 0 0 0 0 0 0 0 0 0 0 0 0 0 0 0 0 0 0 0 0 0 0 0 0 0 0 0 0 0 0 0 0 0 0 0 0 0 0 0 0
0 0 0 0 0 0 0 0 0 0 0 0 0 0 0 0 0 0 0 0 0 0 0 0 0 0 0 0 0 0 0 0 0 0 0 0 0 0 0 0 0 0 0 0
0 0 0 0 0 0 0 0 0 0 0 0 0 0 0 0 0 0 0 0 0 0 0 0 0 0 0 0 0 0 0 0 0 0 0 0 0 0 0 0 0 0 0 0
1 1 0 0 0 0 0 0 0 0 0 0 0 0 0 0 0 0 0 0 0 0 0 0 0 0 0 0 0 0 0 0 0 0 0 0 0 0 0 0 0 0 0 0
0 0 0 0 0 0 0 0 0 0 0 0 0 0 0 0 0 0 0 0 0 0 0 0 0 0 0 0 0 0 0 0 0 0 0 0 0 0 0 0 0 0 0 0
0 0 0 0 0 0 0 0 0 0 0 0 0 0 0 0 0 0 0 0 0 0 0 0 0 0 0 0 0 0 0 0 0 0 0 0 0 0 0 0 0 0 0 0
0 0 0 0 0 0 0 0 0 0 1 0 0 0 0 0 0 0 0 0 0 0 0 0 0 0 0 0 0 0 0 0 0 0 0 0 0 0 0 0 0 0 0 0
0 0 0 0 0 0 0 0 0 0 0 0 0 0 0 0 0 0 0 0 0 0 0 0 0 0 0 0 0 0 0 0 0 0 0 0 0 0 0 0 0 0 0 0
1 1 0 0 0 1 1 1 1 0 0 0 0 0 0 0 0 0 0 0 0 0 0 0 0 0 0 0 0 0 0 0 0 0 0 0 0 0 0 0 0 0 0 0
2 1 0 0 0 1 2 2 1 1 0 0 0 0 0 0 0 0 0 0 0 0 0 0 0 0 0 0 0 0 0 0 0 0 0 0 0 0 0 0 0 0 0 0
5 3 3 3 2 1 2 3 2 1 1 1 0 0 0 0 0 0 0 0 0 0 0 0 0 0 0 0 0 0 0 0 0 0 0 0 0 0 0 0 0 0 0 0
8 7 7 7 7 5 3 2 1 1 2 1 0 0 0 0 0 1 1 0 0 0 0 0 0 0 0 0 0 0 0 0 0 0 0 0 0 0 0 0 0 0 0 0
9 9 8 7 9 9 5 2 1 1 2 2 1 1 1 1 1 1 1 0 0 0 0 0 0 0 0 0 0 0 0 0 0 0 0 0 0 0 0 0 0 0 0 0
7 8 7 5 7 8 8 7 8 9 7 5 3 3 4 4 3 1 0 0 0 0 0 0 0 0 0 0 0 0 0 0 0 0 0 0 0 0 0 0 0 0 0 0
3 4 5 6 6 7 8 12 15 16 13 9 6 5 5 4 3 2 0 0 0 0 0 0 0 0 0 0 0 0 0 0 0 0 0 0 0 0 0 0 0 0 0 0
1 2 4 6 6 7 7 8 10 13 14 11 7 5 4 3 2 1 0 0 0 0 0 0 0 0 0 0 0 0 0 0 0 0 0 0 0 0 0 0 0 0 0 0
0 1 2 3 4 4 4 3 4 8 12 12 7 4 2 2 2 1 0 0 0 0 0 0 0 0 0 0 0 0 0 0 0 0 0 0 0 0 0 0 0 0 0 0
Wind_Speed
10 7 6 6 5 5 5 6 7 9 9 9 10 9 9 9 10 10 9 9 9 8 8 8 9 8 9 9 9 9 10 10 9 10 10 10 10 10 10 9 11 9 9 9
12 8 8 9 6 3 5 6 7 9 8 10 10 10 10 10 10 9 9 11 11 11 10 10 10 10 10 10 9 10 11 11 11 10 10 10 10 10 10 10 10 9 9 10
11 9 10 9 3 2 4 7 8 8 8 10 10 10 10 9 8 9 10 11 11 11 10 9 10 9 10 11 10 11 11 12 11 11 11 11 13 12 11 10 10 10 10 10
11 11 11 3 2 3 3 5 7 6 8 9 9 10 8 8 8 9 10 11 11 11 11 10 10 10 10 12 12 12 12 12 11 11 12 12 11 11 11 10 9 9 10 10
9 11 8 2 3 2 3 5 6 6 7 9 9 9 4 9 9 9 9 10 10 11 11 10 10 11 12 13 13 13 13 12 13 13 13 13 13 12 11 10 10 9 10 10
9 12 14 4 7 4 2 1 7 6 7 8 9 8 7 10 10 9 9 9 10 10 11 10 10 10 12 13 13 13 14 14 13 13 13 14 13 12 10 9 9 10 10 9
10 12 6 8 6 2 5 4 5 6 6 7 6 6 8 9 9 9 9 10 10 10 10 9 10 10 12 13 13 13 14 14 13 13 13 13 11 10 10 9 9 9 10 9
8 9 2 4 2 4 5 3 4 5 6 6 6 7 8 9 9 10 10 11 11 10 9 9 9 10 12 12 12 13 14 14 14 13 13 12 11 10 9 9 9 8 8 8
5 4 2 0 2 4 2 2 3 4 5 5 6 7 8 8 8 9 10 10 10 11 11 10 10 10 12 12 12 13 14 14 14 14 11 11 10 10 8 7 6 6 5 6
5 6 5 3 2 2 2 1 2 2 3 4 6 7 7 7 8 8 10 10 10 11 11 11 11 11 10 11 11 12 14 14 13 12 11 10 7 7 6 6 5 5 5 4
9 7 7 5 3 3 2 1 2 2 2 3 5 6 7 6 7 8 9 9 9 10 10 11 11 11 11 11 11 13 14 13 12 11 10 9 8 6 6 4 3 5 5 4
5 4 5 4 1 2 2 2 2 2 2 3 3 5 6 6 6 7 9 9 9 10 11 11 11 11 11 10 11 12 12 12 10 9 8 8 7 6 4 4 3 3 4 4
5 5 6 2 1 2 2 3 3 3 3 3 3 4 5 6 6 7 8 9 10 10 11 11 11 11 11 11 12 12 12 11 9 9 8 8 7 6 5 3 3 2 2 2
3 3 5 5 4 4 4 4 3 3 3 2 2 3 4 6 7 8 9 9 10 10 10 10 11 11 12 12 12 13 13 11 10 8 8 7 7 6 5 4 2 1 2 2
4 5 7 7 6 5 5 5 5 5 3 2 1 2 4 5 7 7 8 8 9 10 10 10 11 11 12 12 12 13 11 9 9 9 8 7 6 6 5 5 3 1 1 2
7 7 7 7 7 6 7 7 7 5 3 1 1 2 3 5 6 7 7 8 9 10 9 9 10 11 12 12 12 10 9 12 12 9 7 7 6 6 5 4 3 2 0 1
7 7 7 7 7 7 8 7 6 3 2 1 0 1 3 5 6 7 7 8 8 8 7 8 10 11 12 11 11 9 9 10 12 8 6 6 6 6 5 4 3 3 2 2
7 8 7 7 7 7 7 6 4 3 2 1 0 1 3 5 6 7 7 8 8 7 7 8 10 11 11 10 10 9 9 8 7 7 6 6 6 5 4 4 3 3 2 1
8 8 8 7 6 5 4 3 3 3 3 2 1 1 2 4 4 5 6 8 7 7 8 9 11 10 10 10 12 9 9 9 8 7 6 5 5 4 4 4 3 2 2 1
10 9 8 7 4 2 1 1 2 2 3 3 2 3 3 3 4 5 6 6 3 4 7 8 9 8 10 11 14 9 9 8 8 7 6 6 5 4 4 4 3 3 2 2
12 11 10 8 4 1 0 2 2 3 3 3 4 4 3 3 4 4 5 5 3 5 7 7 5 7 9 11 13 8 7 7 7 7 6 6 5 5 5 5 4 3 2 2
12 11 11 10 6 2 1 2 4 5 5 6 6 5 3 4 5 5 3 1 2 4 5 5 6 8 11 13 8 8 7 7 7 6 6 5 5 5 5 5 4 3 3 2
12 12 11 10 8 5 4 5 6 7 7 7 7 6 5 3 3 5 4 1 2 3 4 3 5 9 13 8 7 7 7 7 7 7 7 6 5 4 4 4 4 3 3 2
12 12 11 11 10 9 8 8 8 8 8 8 8 6 5 4 4 4 0 5 4 1 3 2 2 7 9 5 6 6 7 7 7 8 7 7 6 5 4 4 4 4 4 3
13 13 13 12 11 10 9 9 9 10 10 8 9 8 7 5 4 2 0 2 5 1 2 2 1 5 5 5 6 6 6 7 8 8 7 7 7 6 5 5 4 4 4 4
12 12 11 10 10 9 10 9 9 8 8 8 7 6 5 4 4 3 3 2 2 2 2 1 2 3 4 5 6 7 6 7 7 7 8 7 8 7 6 6 6 5 4 4
13 12 9 10 10 9 9 8 8 8 7 6 5 5 5 5 5 4 3 2 1 1 1 2 2 3 4 5 5 6 6 6 7 7 8 7 7 7 7 7 5 5 6 6
Wind_Direction
309 315 316 324 329 335 338 335 329 338 344 37 33 13 4 354 345 337 342 352 353 348 341 336 332 328 323 323 323 320 315 311 309 307 304 302 300 297 294 290 288 286 282 276
304 305 299 291 279 292 317 324 326 327 346 37 19 6 354 342 334 340 350 350 345 340 338 334 330 327 328 324 323 321 316 311 307 304 303 300 297 293 290 288 288 285 281 278
299 301 291 297 262 260 325 334 332 330 5 19 359 352 341 341 5 0 349 345 342 339 333 330 329 332 329 327 325 319 312 309 310 310 308 306 305 303 298 293 288 283 278 274
291 297 294 302 70 54 352 331 333 353 16 7 352 344 356 43 25 358 350 346 341 333 329 330 333 334 332 327 321 316 314 315 316 315 312 308 304 300 296 291 287 281 277 272
292 295 299 175 162 113 339 331 26 20 6 355 348 324 54 45 20 4 354 344 334 329 329 333 335 337 329 321 320 320 321 321 319 315 311 308 305 301 298 292 285 279 276 269
278 293 298 316 112 97 292 108 38 18 4 348 339 327 351 10 6 2 351 339 332 332 333 333 337 333 325 322 324 324 323 319 317 313 309 306 302 299 294 289 284 282 277 269
271 282 305 88 109 257 302 60 25 7 352 344 355 332 337 352 359 354 343 336 338 337 334 335 334 331 324 324 327 327 321 318 315 311 307 302 300 298 296 292 287 283 281 272
270 280 338 93 342 12 67 57 354 348 346 350 339 334 344 351 352 346 340 339 341 336 333 335 336 332 326 326 327 325 321 317 315 312 310 310 307 302 299 296 291 286 282 277
337 335 149 305 41 85 104 332 339 340 344 340 334 338 345 348 346 341 340 340 338 335 332 336 337 335 327 327 326 324 321 318 315 314 312 309 306 306 305 301 294 293 290 287
292 292 290 283 227 179 174 241 316 320 329 336 333 338 344 343 341 341 339 337 338 336 333 335 335 333 330 327 327 325 322 318 316 315 314 314 309 306 307 307 307 307 305 302
272 275 273 260 234 205 177 190 274 305 329 338 337 337 339 339 342 339 335 337 338 336 334 334 335 333 331 330 330 325 321 317 317 316 314 312 310 309 309 318 315 307 313 315
297 328 306 297 213 198 205 222 249 292 310 323 331 333 337 338 341 338 335 337 337 337 336 334 334 332 332 333 330 324 319 319 317 316 316 314 313 313 307 297 292 282 282 294
306 306 304 316 164 191 219 228 214 211 240 284 321 338 337 338 339 338 334 338 339 338 335 333 334 334 336 336 330 322 317 316 313 315 316 316 317 316 311 293 271 276 277 281
296 293 288 276 261 229 230 238 229 221 217 236 309 336 341 340 336 335 336 339 341 337 334 336 336 336 339 336 328 322 318 315 315 316 316 315 315 315 314 312 300 232 207 243
279 260 258 252 245 231 216 227 231 235 228 226 291 341 344 335 331 333 337 342 342 335 337 339 336 337 339 333 326 321 318 318 321 317 313 314 316 321 327 330 331 334 153 153
279 267 263 255 242 235 225 230 236 241 239 227 313 346 335 330 332 333 343 347 341 336 337 338 337 340 335 329 326 320 318 318 318 318 317 323 330 332 337 340 344 2 32 121
291 280 271 265 252 242 238 237 235 236 246 187 49 336 330 331 330 337 343 345 337 329 340 346 344 339 328 327 329 323 321 319 320 324 325 334 336 334 342 355 1 13 45 64
298 291 285 276 267 257 242 231 213 187 172 157 202 337 329 323 330 336 337 335 326 328 355 353 348 329 324 334 335 323 318 318 325 327 327 338 336 334 345 355 6 10 12 123
321 313 303 294 281 268 253 222 187 161 156 164 211 274 296 313 329 329 331 323 321 337 354 346 336 324 333 344 341 321 321 325 328 332 334 334 329 342 349 360 10 7 356 339
343 336 326 317 315 307 262 143 147 164 175 180 219 254 282 308 317 321 323 311 354 14 341 334 327 335 341 342 336 319 323 330 334 339 343 343 341 347 353 359 357 359 6 343
354 349 342 335 334 322 181 156 171 199 207 211 224 249 273 293 299 304 304 311 49 38 334 313 326 353 345 332 315 318 332 337 340 342 344 348 349 354 357 359 0 354 360 9
355 351 346 338 330 302 215 196 214 221 219 220 227 234 254 276 287 291 281 319 51 46 327 336 7 356 335 323 317 329 336 340 342 343 344 347 352 354 356 4 4 355 357 360
344 342 337 331 323 304 260 231 230 231 231 229 229 227 232 251 277 288 298 55 53 19 317 4 5 337 327 323 327 335 345 349 343 343 345 343 347 353 353 0 1 357 356 352
326 324 320 314 306 291 272 251 237 231 229 229 231 220 210 230 238 242 272 125 125 334 322 69 1 330 323 331 337 344 351 352 348 345 344 342 346 352 355 2 0 349 356 11
309 306 301 294 286 278 269 253 241 232 230 228 229 216 208 212 231 252 311 131 139 216 313 127 165 322 334 350 348 350 353 354 346 338 343 348 353 0 4 12 12 356 0 8
299 293 292 285 282 278 275 267 255 240 229 226 225 214 203 193 193 191 200 217 171 190 285 17 19 349 359 358 357 356 354 348 346 348 349 351 356 358 6 13 10 3 9 15
288 285 279 277 278 275 274 271 264 251 235 224 218 207 193 187 186 191 198 217 195 134 32 24 22 23 13 8 4 360 356 353 351 351 348 351 353 354 359 4 10 14 19 38